When you browse on this site, cookies collect data to enhance your experience and personalize the content and advertising you see.
Visit our Privacy Policy to learn more. By continuing to use the site, you agree to this use of cookies and data.
  • In Deutschland
  • Länderverzeichnis
  • Für 7 Tage
  • Wassertemperatur
  • Satellitenkarten
  • Wetterkarte
  • Widgets
  • user-avatar
    Anmelden

    Stündliche Wetter Saurimo

    Heute, 17 Juni, Montag

    Zeit Temperatur Niederschläge Wind Luftdruck Luftfeuchtigkeit
    00:00 +16°C° 0 mm 2 m/S 672 mmHg 48%
    01:00 +15°C° 0 mm 2 m/S 672 mmHg 49%
    02:00 +15°C° 0 mm 2 m/S 672 mmHg 50%
    03:00 +15°C° 0 mm 2 m/S 672 mmHg 51%
    04:00 +14°C° 0 mm 2 m/S 672 mmHg 51%
    05:00 +15°C° 0 mm 2 m/S 672 mmHg 51%
    06:00 +14°C° 0 mm 3 m/S 673 mmHg 50%
    07:00 +16°C° 0 mm 3 m/S 674 mmHg 50%
    08:00 +19°C° 0 mm 3 m/S 674 mmHg 43%
    09:00 +22°C° 0 mm 3 m/S 675 mmHg 36%
    10:00 +27°C° 0 mm 4 m/S 675 mmHg 29%
    11:00 +28°C° 0 mm 3 m/S 675 mmHg 26%
    12:00 +29°C° 0 mm 3 m/S 675 mmHg 24%
    13:00 +31°C° 0 mm 2 m/S 674 mmHg 21%
    14:00 +30°C° 0 mm 2 m/S 674 mmHg 21%
    15:00 +30°C° 0 mm 2 m/S 673 mmHg 22%
    16:00 +30°C° 0 mm 2 m/S 673 mmHg 22%
    17:00 +27°C° 0 mm 2 m/S 672 mmHg 27%
    18:00 +24°C° 0 mm 2 m/S 672 mmHg 32%
    19:00 +20°C° 0 mm 2 m/S 672 mmHg 38%
    20:00 +19°C° 0 mm 2 m/S 672 mmHg 39%
    21:00 +19°C° 0 mm 2 m/S 673 mmHg 41%
    22:00 +18°C° 0 mm 2 m/S 673 mmHg 43%
    23:00 +17°C° 0 mm 2 m/S 673 mmHg 44%

    Morgen, 18 Juni, Dienstag

    Zeit Temperatur Niederschläge Wind Luftdruck Luftfeuchtigkeit
    00:00 +17°C° 0 mm 2 m/S 672 mmHg 44%
    01:00 +16°C° 0 mm 2 m/S 672 mmHg 45%
    02:00 +16°C° 0 mm 2 m/S 672 mmHg 47%
    03:00 +15°C° 0 mm 2 m/S 672 mmHg 48%
    04:00 +15°C° 0 mm 2 m/S 672 mmHg 50%
    05:00 +14°C° 0 mm 3 m/S 672 mmHg 50%
    06:00 +16°C° 0 mm 3 m/S 673 mmHg 50%
    07:00 +17°C° 0 mm 3 m/S 673 mmHg 51%
    08:00 +20°C° 0 mm 3 m/S 674 mmHg 44%
    09:00 +23°C° 0 mm 4 m/S 675 mmHg 37%
    10:00 +27°C° 0 mm 4 m/S 675 mmHg 31%
    11:00 +28°C° 0 mm 3 m/S 675 mmHg 28%
    12:00 +29°C° 0 mm 3 m/S 674 mmHg 25%
    13:00 +31°C° 0 mm 2 m/S 674 mmHg 22%
    14:00 +30°C° 0 mm 2 m/S 673 mmHg 22%
    15:00 +30°C° 0 mm 2 m/S 673 mmHg 22%
    16:00 +30°C° 0 mm 2 m/S 672 mmHg 22%
    17:00 +27°C° 0 mm 1 m/S 672 mmHg 28%
    18:00 +24°C° 0 mm 1 m/S 672 mmHg 33%
    19:00 +21°C° 0 mm 1 m/S 672 mmHg 39%
    20:00 +20°C° 0 mm 1 m/S 672 mmHg 41%
    21:00 +19°C° 0 mm 1 m/S 672 mmHg 43%
    22:00 +18°C° 0 mm 1 m/S 672 mmHg 45%
    23:00 +17°C° 0 mm 2 m/S 672 mmHg 46%

    übermorgen, 19 Juni, Mittwoch

    Zeit Temperatur Niederschläge Wind Luftdruck Luftfeuchtigkeit
    00:00 +16°C° 0 mm 2 m/S 672 mmHg 47%
    01:00 +16°C° 0 mm 2 m/S 672 mmHg 48%
    02:00 +16°C° 0 mm 2 m/S 672 mmHg 49%
    03:00 +15°C° 0 mm 2 m/S 672 mmHg 50%
    04:00 +14°C° 0 mm 3 m/S 672 mmHg 51%
    05:00 +14°C° 0 mm 3 m/S 672 mmHg 51%
    06:00 +16°C° 0 mm 3 m/S 673 mmHg 51%
    07:00 +16°C° 0 mm 3 m/S 673 mmHg 52%
    08:00 +19°C° 0 mm 3 m/S 674 mmHg 45%
    09:00 +24°C° 0 mm 3 m/S 674 mmHg 39%
    10:00 +27°C° 0 mm 3 m/S 675 mmHg 32%
    11:00 +28°C° 0 mm 3 m/S 675 mmHg 28%
    12:00 +30°C° 0 mm 2 m/S 674 mmHg 24%
    13:00 +31°C° 0 mm 2 m/S 674 mmHg 20%
    14:00 +31°C° 0 mm 2 m/S 673 mmHg 21%
    15:00 +31°C° 0 mm 2 m/S 673 mmHg 22%
    16:00 +30°C° 0 mm 2 m/S 672 mmHg 23%
    17:00 +27°C° 0 mm 2 m/S 672 mmHg 28%
    18:00 +24°C° 0 mm 2 m/S 672 mmHg 34%
    19:00 +21°C° 0 mm 2 m/S 672 mmHg 40%
    20:00 +20°C° 0 mm 2 m/S 672 mmHg 41%
    21:00 +19°C° 0 mm 2 m/S 673 mmHg 43%
    22:00 +18°C° 0 mm 2 m/S 673 mmHg 44%
    23:00 +18°C° 0 mm 2 m/S 673 mmHg 46%

    20 Juni, Donnerstag

    Zeit Temperatur Niederschläge Wind Luftdruck Luftfeuchtigkeit
    00:00 +17°C° 0 mm 2 m/S 672 mmHg 47%
    01:00 +17°C° 0 mm 2 m/S 672 mmHg 49%
    02:00 +16°C° 0 mm 2 m/S 672 mmHg 50%
    03:00 +16°C° 0 mm 2 m/S 672 mmHg 52%
    04:00 +16°C° 0 mm 2 m/S 672 mmHg 54%
    05:00 +16°C° 0 mm 3 m/S 672 mmHg 54%
    06:00 +17°C° 0 mm 3 m/S 673 mmHg 53%
    07:00 +17°C° 0 mm 3 m/S 673 mmHg 53%
    08:00 +20°C° 0 mm 3 m/S 674 mmHg 46%
    09:00 +23°C° 0 mm 4 m/S 674 mmHg 39%
    10:00 +28°C° 0 mm 4 m/S 675 mmHg 32%
    11:00 +29°C° 0 mm 3 m/S 674 mmHg 29%
    12:00 +30°C° 0 mm 3 m/S 674 mmHg 26%
    13:00 +31°C° 0 mm 2 m/S 673 mmHg 23%
    14:00 +31°C° 0 mm 2 m/S 673 mmHg 23%
    15:00 +31°C° 0 mm 2 m/S 672 mmHg 23%
    16:00 +30°C° 0 mm 2 m/S 672 mmHg 23%
    17:00 +28°C° 0 mm 2 m/S 672 mmHg 28%
    18:00 +25°C° 0 mm 2 m/S 672 mmHg 33%
    19:00 +21°C° 0 mm 2 m/S 672 mmHg 38%
    20:00 +20°C° 0 mm 2 m/S 672 mmHg 40%
    21:00 +20°C° 0 mm 2 m/S 672 mmHg 42%
    22:00 +19°C° 0 mm 2 m/S 672 mmHg 43%
    23:00 +18°C° 0 mm 2 m/S 672 mmHg 44%

    21 Juni, Freitag

    Zeit Temperatur Niederschläge Wind Luftdruck Luftfeuchtigkeit
    00:00 +18°C° 0 mm 2 m/S 672 mmHg 45%
    01:00 +17°C° 0 mm 2 m/S 672 mmHg 46%
    02:00 +17°C° 0 mm 2 m/S 672 mmHg 48%
    03:00 +17°C° 0 mm 2 m/S 672 mmHg 50%
    04:00 +16°C° 0 mm 2 m/S 672 mmHg 52%
    05:00 +16°C° 0 mm 3 m/S 672 mmHg 52%
    06:00 +17°C° 0 mm 3 m/S 673 mmHg 51%
    07:00 +17°C° 0 mm 3 m/S 673 mmHg 50%
    08:00 +20°C° 0 mm 4 m/S 674 mmHg 43%
    09:00 +23°C° 0 mm 4 m/S 674 mmHg 35%
    10:00 +27°C° 0 mm 4 m/S 675 mmHg 28%
    11:00 +29°C° 0 mm 3 m/S 674 mmHg 26%
    12:00 +30°C° 0 mm 3 m/S 674 mmHg 23%
    13:00 +31°C° 0 mm 2 m/S 673 mmHg 21%
    14:00 +31°C° 0 mm 2 m/S 673 mmHg 21%
    15:00 +30°C° 0 mm 2 m/S 672 mmHg 22%
    16:00 +30°C° 0 mm 2 m/S 672 mmHg 22%
    17:00 +27°C° 0 mm 2 m/S 672 mmHg 27%
    18:00 +24°C° 0 mm 2 m/S 671 mmHg 33%
    19:00 +20°C° 0 mm 2 m/S 671 mmHg 38%
    20:00 +20°C° 0 mm 2 m/S 671 mmHg 39%
    21:00 +19°C° 0 mm 2 m/S 671 mmHg 40%
    22:00 +18°C° 0 mm 2 m/S 671 mmHg 42%
    23:00 +17°C° 0 mm 2 m/S 671 mmHg 42%

    22 Juni, Samstag

    Zeit Temperatur Niederschläge Wind Luftdruck Luftfeuchtigkeit
    00:00 +17°C° 0 mm 2 m/S 671 mmHg 43%
    01:00 +16°C° 0 mm 2 m/S 671 mmHg 43%
    02:00 +16°C° 0 mm 2 m/S 671 mmHg 42%
    03:00 +15°C° 0 mm 2 m/S 671 mmHg 42%
    04:00 +15°C° 0 mm 2 m/S 671 mmHg 41%
    05:00 +15°C° 0 mm 2 m/S 671 mmHg 40%
    06:00 +14°C° 0 mm 3 m/S 672 mmHg 40%
    07:00 +16°C° 0 mm 3 m/S 672 mmHg 39%
    08:00 +19°C° 0 mm 3 m/S 673 mmHg 34%
    09:00 +24°C° 0 mm 3 m/S 674 mmHg 28%
    10:00 +27°C° 0 mm 4 m/S 674 mmHg 23%
    11:00 +29°C° 0 mm 3 m/S 674 mmHg 21%
    12:00 +30°C° 0 mm 3 m/S 673 mmHg 19%
    13:00 +32°C° 0 mm 2 m/S 673 mmHg 17%
    14:00 +31°C° 0 mm 2 m/S 672 mmHg 17%
    15:00 +31°C° 0 mm 2 m/S 672 mmHg 18%
    16:00 +30°C° 0 mm 2 m/S 671 mmHg 18%
    17:00 +27°C° 0 mm 2 m/S 671 mmHg 22%
    18:00 +24°C° 0 mm 2 m/S 671 mmHg 27%
    19:00 +20°C° 0 mm 2 m/S 671 mmHg 31%
    20:00 +20°C° 0 mm 2 m/S 671 mmHg 32%
    21:00 +19°C° 0 mm 2 m/S 671 mmHg 32%
    22:00 +18°C° 0 mm 2 m/S 671 mmHg 33%
    23:00 +17°C° 0 mm 2 m/S 671 mmHg 33%
    Mehr zeigen